Time,TemperatureF,DewpointF,PressureIn,WindDirection,WindDirectionDegrees,WindSpeedMPH,WindSpeedGustMPH,Humidity,HourlyPrecipIn,Conditions,Clouds,dailyrainin,SoftwareType,DateUTC
2013-04-20 00:01:00,39.8,29.4,29.85,WSW,244,8.0,26.0,66,0.00,,,0.00,WUHU216DAVISVP2,2013-04-20 04:01:00,
2013-04-20 00:02:00,39.8,29.8,29.85,WNW,291,6.0,26.0,67,0.00,,,0.00,WUHU216DAVISVP2,2013-04-20 04:02:00,
2013-04-20 00:07:00,39.8,29.8,29.86,West,273,16.0,30.0,67,0.00,,,0.00,WUHU216DAVISVP2,2013-04-20 04:07:00,
2013-04-20 00:12:00,39.6,30.0,29.86,West,271,14.0,34.0,68,0.00,,,0.00,WUHU216DAVISVP2,2013-04-20 04:12:00,
2013-04-20 00:17:00,39.5,30.2,29.85,WNW,293,12.0,34.0,69,0.00,,,0.00,WUHU216DAVISVP2,2013-04-20 04:17:00,
2013-04-20 00:22:00,39.5,29.9,29.85,WSW,248,16.0,30.0,68,0.00,,,0.00,WUHU216DAVISVP2,2013-04-20 04:22:00,
2013-04-20 00:27:00,39.5,30.6,29.86,WNW,289,8.0,26.0,70,0.00,,,0.00,WUHU216DAVISVP2,2013-04-20 04:27:00,
2013-04-20 00:32:00,39.0,30.8,29.86,West,261,18.0,22.0,72,0.00,,,0.00,WUHU216DAVISVP2,2013-04-20 04:32:00,
2013-04-20 00:37:00,37.8,31.3,29.87,WNW,293,14.0,22.0,77,0.00,,,0.00,WUHU216DAVISVP2,2013-04-20 04:37:00,
2013-04-20 00:42:00,36.9,31.6,29.87,West,279,6.0,22.0,81,0.00,,,0.00,WUHU216DAVISVP2,2013-04-20 04:42:00,
2013-04-20 00:47:00,36.7,31.4,29.86,WSW,257,4.0,22.0,81,0.00,,,0.00,WUHU216DAVISVP2,2013-04-20 04:47:00,
2013-04-20 00:52:00,36.9,31.6,29.87,SW,223,6.0,22.0,81,0.00,,,0.00,WUHU216DAVISVP2,2013-04-20 04:52:00,
2013-04-20 00:57:00,37.2,31.3,29.87,West,278,2.0,14.0,79,0.00,,,0.00,WUHU216DAVISVP2,2013-04-20 04:57:00,
2013-04-20 01:06:00,37.5,31.3,29.87,WNW,288,8.0,14.0,78,0.00,,,0.00,WUHU216DAVISVP2,2013-04-20 05:06:00,
2013-04-20 01:11:00,37.4,31.8,29.88,WSW,250,8.0,20.0,80,0.00,,,0.00,WUHU216DAVISVP2,2013-04-20 05:11:00,
2013-04-20 01:16:00,36.8,31.8,29.88,West,267,4.0,18.0,82,0.00,,,0.00,WUHU216DAVISVP2,2013-04-20 05:16:00,
2013-04-20 01:21:00,36.4,31.7,29.88,SW,216,14.0,28.0,83,0.00,,,0.00,WUHU216DAVISVP2,2013-04-20 05:21:00,
2013-04-20 01:26:00,36.0,31.3,29.89,SW,232,12.0,28.0,83,0.00,,,0.00,WUHU216DAVISVP2,2013-04-20 05:26:00,
2013-04-20 01:31:00,35.7,31.3,29.88,WNW,290,8.0,24.0,84,0.00,,,0.00,WUHU216DAVISVP2,2013-04-20 05:31:00,
2013-04-20 01:36:00,35.6,31.5,29.88,WSW,252,8.0,26.0,85,0.00,,,0.00,WUHU216DAVISVP2,2013-04-20 05:36:00,
2013-04-20 01:41:00,35.6,31.8,29.88,WSW,250,6.0,26.0,86,0.00,,,0.00,WUHU216DAVISVP2,2013-04-20 05:41:00,
2013-04-20 01:46:00,35.6,31.8,29.88,WSW,238,6.0,16.0,86,0.00,,,0.00,WUHU216DAVISVP2,2013-04-20 05:46:00,
2013-04-20 01:51:00,35.7,31.6,29.88,WNW,301,0.0,14.0,85,0.00,,,0.00,WUHU216DAVISVP2,2013-04-20 05:51:00,
2013-04-20 01:56:00,35.9,31.5,29.89,West,262,12.0,20.0,84,0.00,,,0.00,WUHU216DAVISVP2,2013-04-20 05:56:00,
2013-04-20 02:01:00,36.0,31.6,29.88,West,261,6.0,20.0,84,0.00,,,0.00,WUHU216DAVISVP2,2013-04-20 06:01:00,
2013-04-20 02:06:00,36.2,31.5,29.88,WSW,257,2.0,16.0,83,0.00,,,0.00,WUHU216DAVISVP2,2013-04-20 06:06:00,
2013-04-20 02:11:00,36.3,31.6,29.88,West,260,10.0,16.0,83,0.00,,,0.00,WUHU216DAVISVP2,2013-04-20 06:11:00,
2013-04-20 02:16:00,36.4,31.4,29.89,WSW,240,6.0,20.0,82,0.00,,,0.00,WUHU216DAVISVP2,2013-04-20 06:16:00,
2013-04-20 02:21:00,36.6,31.3,29.89,WSW,240,6.0,24.0,81,0.00,,,0.00,WUHU216DAVISVP2,2013-04-20 06:21:00,
2013-04-20 02:26:00,36.8,31.2,29.89,West,273,14.0,24.0,80,0.00,,,0.00,WUHU216DAVISVP2,2013-04-20 06:26:00,
2013-04-20 02:31:00,37.0,31.1,29.89,WNW,292,6.0,22.0,79,0.00,,,0.00,WUHU216DAVISVP2,2013-04-20 06:31:00,
2013-04-20 02:37:00,37.0,30.8,29.89,West,260,6.0,26.0,78,0.00,,,0.00,WUHU216DAVISVP2,2013-04-20 06:37:00,
2013-04-20 02:42:00,37.1,30.6,29.89,WSW,252,12.0,32.0,77,0.00,,,0.00,WUHU216DAVISVP2,2013-04-20 06:42:00,
2013-04-20 02:47:00,37.0,30.2,29.89,WNW,298,14.0,32.0,76,0.00,,,0.00,WUHU216DAVISVP2,2013-04-20 06:47:00,
2013-04-20 02:52:00,37.1,30.0,29.89,WNW,297,6.0,32.0,75,0.01,,,0.01,WUHU216DAVISVP2,2013-04-20 06:52:00,
2013-04-20 02:57:00,37.1,30.0,29.89,WSW,254,12.0,32.0,75,0.01,,,0.01,WUHU216DAVISVP2,2013-04-20 06:57:00,
2013-04-20 03:02:00,37.1,30.0,29.90,WNW,300,6.0,26.0,75,0.01,,,0.01,WUHU216DAVISVP2,2013-04-20 07:02:00,
2013-04-20 03:07:00,37.1,29.6,29.90,West,267,12.0,30.0,74,0.01,,,0.01,WUHU216DAVISVP2,2013-04-20 07:07:00,
2013-04-20 03:12:00,37.2,29.4,29.90,NW,325,26.0,30.0,73,0.01,,,0.01,WUHU216DAVISVP2,2013-04-20 07:12:00,
2013-04-20 03:17:00,37.1,29.3,29.90,WNW,296,10.0,38.0,73,0.01,,,0.01,WUHU216DAVISVP2,2013-04-20 07:17:00,
2013-04-20 03:22:00,37.0,29.2,29.90,West,272,4.0,38.0,73,0.01,,,0.01,WUHU216DAVISVP2,2013-04-20 07:22:00,
2013-04-20 03:27:00,36.8,29.3,29.90,WNW,288,8.0,34.0,74,0.01,,,0.01,WUHU216DAVISVP2,2013-04-20 07:27:00,
2013-04-20 03:32:00,36.8,29.3,29.90,West,280,2.0,28.0,74,0.01,,,0.01,WUHU216DAVISVP2,2013-04-20 07:32:00,
2013-04-20 03:37:00,36.8,29.3,29.90,WSW,245,14.0,28.0,74,0.01,,,0.01,WUHU216DAVISVP2,2013-04-20 07:37:00,
2013-04-20 03:43:00,36.8,29.7,29.90,West,277,4.0,22.0,75,0.01,,,0.01,WUHU216DAVISVP2,2013-04-20 07:43:00,
2013-04-20 03:48:00,36.7,29.6,29.91,WNW,286,6.0,20.0,75,0.01,,,0.01,WUHU216DAVISVP2,2013-04-20 07:48:00,
2013-04-20 03:53:00,36.6,29.8,29.91,SW,230,8.0,24.0,76,0.00,,,0.01,WUHU216DAVISVP2,2013-04-20 07:53:00,
2013-04-20 03:58:00,36.6,29.8,29.91,WNW,294,6.0,28.0,76,0.00,,,0.01,WUHU216DAVISVP2,2013-04-20 07:58:00,
2013-04-20 04:03:00,36.6,29.8,29.91,West,279,4.0,28.0,76,0.00,,,0.01,WUHU216DAVISVP2,2013-04-20 08:03:00,
2013-04-20 04:08:00,36.6,29.5,29.91,WNW,290,14.0,30.0,75,0.00,,,0.01,WUHU216DAVISVP2,2013-04-20 08:08:00,
2013-04-20 04:13:00,36.6,29.8,29.91,NW,304,10.0,30.0,76,0.00,,,0.01,WUHU216DAVISVP2,2013-04-20 08:13:00,
2013-04-20 04:18:00,36.6,29.8,29.91,West,259,14.0,30.0,76,0.00,,,0.01,WUHU216DAVISVP2,2013-04-20 08:18:00,
2013-04-20 04:23:00,36.6,29.5,29.92,West,269,24.0,30.0,75,0.00,,,0.01,WUHU216DAVISVP2,2013-04-20 08:23:00,
2013-04-20 04:28:00,36.6,29.5,29.92,West,275,6.0,30.0,75,0.00,,,0.01,WUHU216DAVISVP2,2013-04-20 08:28:00,
2013-04-20 04:33:00,36.7,29.6,29.92,West,259,12.0,30.0,75,0.00,,,0.01,WUHU216DAVISVP2,2013-04-20 08:33:00,
2013-04-20 04:38:00,36.6,29.5,29.92,West,270,10.0,32.0,75,0.00,,,0.01,WUHU216DAVISVP2,2013-04-20 08:38:00,
2013-04-20 04:43:00,36.6,28.8,29.92,WNW,287,8.0,32.0,73,0.00,,,0.01,WUHU216DAVISVP2,2013-04-20 08:43:00,
2013-04-20 04:48:00,36.7,29.2,29.92,South,190,4.0,24.0,74,0.00,,,0.01,WUHU216DAVISVP2,2013-04-20 08:48:00,
2013-04-20 04:53:00,36.7,29.2,29.93,WSW,249,22.0,22.0,74,0.00,,,0.01,WUHU216DAVISVP2,2013-04-20 08:53:00,
2013-04-20 04:58:00,36.7,29.2,29.93,WNW,298,6.0,22.0,74,0.00,,,0.01,WUHU216DAVISVP2,2013-04-20 08:58:00,
2013-04-20 05:03:00,36.6,29.1,29.93,West,261,22.0,28.0,74,0.00,,,0.01,WUHU216DAVISVP2,2013-04-20 09:03:00,
2013-04-20 05:08:00,36.7,28.9,29.93,West,269,8.0,30.0,73,0.00,,,0.01,WUHU216DAVISVP2,2013-04-20 09:08:00,
2013-04-20 05:14:00,36.7,28.9,29.94,West,277,8.0,30.0,73,0.00,,,0.01,WUHU216DAVISVP2,2013-04-20 09:14:00,
2013-04-20 05:19:00,36.7,28.9,29.94,SW,230,6.0,28.0,73,0.00,,,0.01,WUHU216DAVISVP2,2013-04-20 09:19:00,
2013-04-20 05:24:00,36.7,28.9,29.94,West,261,14.0,28.0,73,0.00,,,0.01,WUHU216DAVISVP2,2013-04-20 09:24:00,
2013-04-20 05:29:00,36.7,28.6,29.94,WNW,284,10.0,26.0,72,0.00,,,0.01,WUHU216DAVISVP2,2013-04-20 09:29:00,
2013-04-20 05:34:00,36.7,28.6,29.94,NW,319,6.0,26.0,72,0.00,,,0.01,WUHU216DAVISVP2,2013-04-20 09:34:00,
2013-04-20 05:39:00,36.7,28.6,29.94,WSW,252,10.0,24.0,72,0.00,,,0.01,WUHU216DAVISVP2,2013-04-20 09:39:00,
2013-04-20 05:44:00,36.7,28.9,29.94,WSW,255,10.0,22.0,73,0.00,,,0.01,WUHU216DAVISVP2,2013-04-20 09:44:00,
2013-04-20 05:49:00,36.7,28.9,29.94,WSW,244,12.0,18.0,73,0.00,,,0.01,WUHU216DAVISVP2,2013-04-20 09:49:00,
2013-04-20 05:54:00,36.7,28.6,29.95,NW,319,10.0,18.0,72,0.00,,,0.01,WUHU216DAVISVP2,2013-04-20 09:54:00,
2013-04-20 05:59:00,36.7,28.9,29.95,West,269,10.0,28.0,73,0.00,,,0.01,WUHU216DAVISVP2,2013-04-20 09:59:00,
2013-04-20 06:04:00,36.4,29.3,29.95,NW,304,4.0,28.0,75,0.00,,,0.01,WUHU216DAVISVP2,2013-04-20 10:04:00,
2013-04-20 06:09:00,36.2,29.7,29.96,WNW,298,6.0,24.0,77,0.00,,,0.01,WUHU216DAVISVP2,2013-04-20 10:09:00,
2013-04-20 06:14:00,35.7,29.5,29.96,NW,325,10.0,18.0,78,0.00,,,0.01,WUHU216DAVISVP2,2013-04-20 10:14:00,
2013-04-20 06:19:00,35.6,29.4,29.96,WNW,302,6.0,20.0,78,0.00,,,0.01,WUHU216DAVISVP2,2013-04-20 10:19:00,
2013-04-20 06:24:00,35.4,29.6,29.97,WSW,254,12.0,22.0,79,0.00,,,0.01,WUHU216DAVISVP2,2013-04-20 10:24:00,
2013-04-20 06:29:00,35.2,29.7,29.97,NW,313,10.0,22.0,80,0.00,,,0.01,WUHU216DAVISVP2,2013-04-20 10:29:00,
2013-04-20 06:34:00,35.0,29.8,29.97,NNW,337,2.0,16.0,81,0.00,,,0.01,WUHU216DAVISVP2,2013-04-20 10:34:00,
2013-04-20 06:39:00,34.7,29.8,29.98,NW,316,10.0,20.0,82,0.00,,,0.01,WUHU216DAVISVP2,2013-04-20 10:39:00,
2013-04-20 06:44:00,34.3,30.0,29.98,WNW,302,8.0,20.0,84,0.00,,,0.01,WUHU216DAVISVP2,2013-04-20 10:44:00,
2013-04-20 06:49:00,34.1,29.8,29.98,West,267,0.0,14.0,84,0.00,,,0.01,WUHU216DAVISVP2,2013-04-20 10:49:00,
2013-04-20 06:54:00,34.1,29.5,29.98,NW,310,6.0,14.0,83,0.00,,,0.01,WUHU216DAVISVP2,2013-04-20 10:54:00,
2013-04-20 07:00:00,34.7,28.6,29.98,NW,309,8.0,14.0,78,0.00,,,0.01,WUHU216DAVISVP2,2013-04-20 11:00:00,
2013-04-20 07:05:00,35.1,28.3,29.99,WSW,252,8.0,24.0,76,0.00,,,0.01,WUHU216DAVISVP2,2013-04-20 11:05:00,
2013-04-20 07:10:00,35.3,28.2,29.99,West,273,4.0,24.0,75,0.00,,,0.01,WUHU216DAVISVP2,2013-04-20 11:10:00,
2013-04-20 07:15:00,35.4,28.3,30.00,West,279,4.0,20.0,75,0.00,,,0.01,WUHU216DAVISVP2,2013-04-20 11:15:00,
2013-04-20 07:20:00,35.4,28.3,30.00,NW,309,4.0,14.0,75,0.00,,,0.01,WUHU216DAVISVP2,2013-04-20 11:20:00,
2013-04-20 07:25:00,35.4,28.3,30.01,West,275,8.0,22.0,75,0.00,,,0.01,WUHU216DAVISVP2,2013-04-20 11:25:00,
2013-04-20 07:30:00,35.4,28.3,30.01,West,273,6.0,22.0,75,0.00,,,0.01,WUHU216DAVISVP2,2013-04-20 11:30:00,
2013-04-20 07:35:00,35.4,28.3,30.01,West,269,10.0,18.0,75,0.00,,,0.01,WUHU216DAVISVP2,2013-04-20 11:35:00,
2013-04-20 07:40:00,35.5,28.4,30.01,WNW,292,14.0,24.0,75,0.00,,,0.01,WUHU216DAVISVP2,2013-04-20 11:40:00,
2013-04-20 07:45:00,35.5,28.4,30.01,WSW,255,4.0,24.0,75,0.00,,,0.01,WUHU216DAVISVP2,2013-04-20 11:45:00,
2013-04-20 07:50:00,35.6,28.5,30.02,West,280,2.0,18.0,75,0.00,,,0.01,WUHU216DAVISVP2,2013-04-20 11:50:00,
2013-04-20 07:55:00,35.8,28.0,30.02,West,281,8.0,28.0,73,0.00,,,0.01,WUHU216DAVISVP2,2013-04-20 11:55:00,
2013-04-20 08:00:00,35.9,28.5,30.02,WNW,302,10.0,28.0,74,0.00,,,0.01,WUHU216DAVISVP2,2013-04-20 12:00:00,
2013-04-20 08:05:00,35.8,28.4,30.03,North,355,6.0,20.0,74,0.00,,,0.01,WUHU216DAVISVP2,2013-04-20 12:05:00,
2013-04-20 08:10:00,35.3,29.5,30.04,NW,325,26.0,26.0,79,0.00,,,0.01,WUHU216DAVISVP2,2013-04-20 12:10:00,
2013-04-20 08:15:00,32.9,29.4,30.05,NW,313,6.0,26.0,87,0.00,,,0.01,WUHU216DAVISVP2,2013-04-20 12:15:00,
2013-04-20 08:20:00,32.3,29.6,30.05,West,260,8.0,24.0,90,0.00,,,0.01,WUHU216DAVISVP2,2013-04-20 12:20:00,
2013-04-20 08:25:00,32.1,29.7,30.05,WNW,289,10.0,18.0,91,0.00,,,0.01,WUHU216DAVISVP2,2013-04-20 12:25:00,
2013-04-20 08:30:00,32.0,29.9,30.06,WNW,299,12.0,22.0,92,0.00,,,0.01,WUHU216DAVISVP2,2013-04-20 12:30:00,
2013-04-20 08:35:00,31.8,29.7,30.06,WSW,254,6.0,22.0,92,0.00,,,0.01,WUHU216DAVISVP2,2013-04-20 12:35:00,
2013-04-20 08:40:00,31.5,29.4,30.06,NNW,332,8.0,22.0,92,0.00,,,0.01,WUHU216DAVISVP2,2013-04-20 12:40:00,
2013-04-20 08:45:00,31.4,29.3,30.07,West,274,12.0,22.0,92,0.00,,,0.01,WUHU216DAVISVP2,2013-04-20 12:45:00,
2013-04-20 08:50:00,31.4,29.3,30.06,WSW,257,6.0,18.0,92,0.00,,,0.01,WUHU216DAVISVP2,2013-04-20 12:50:00,
2013-04-20 08:55:00,31.6,29.5,30.07,WSW,238,2.0,18.0,92,0.00,,,0.01,WUHU216DAVISVP2,2013-04-20 12:55:00,
2013-04-20 09:00:00,31.9,29.8,30.07,WNW,298,4.0,16.0,92,0.00,,,0.01,WUHU216DAVISVP2,2013-04-20 13:00:00,
2013-04-20 09:06:00,32.1,30.0,30.07,North,360,10.0,14.0,92,0.00,,,0.01,WUHU216DAVISVP2,2013-04-20 13:06:00,
2013-04-20 09:11:00,32.5,30.1,30.08,West,262,4.0,18.0,91,0.00,,,0.01,WUHU216DAVISVP2,2013-04-20 13:11:00,
2013-04-20 09:16:00,32.7,30.3,30.08,WNW,290,2.0,18.0,91,0.00,,,0.01,WUHU216DAVISVP2,2013-04-20 13:16:00,
2013-04-20 09:21:00,33.0,30.3,30.08,NW,323,10.0,12.0,90,0.00,,,0.01,WUHU216DAVISVP2,2013-04-20 13:21:00,
2013-04-20 09:26:00,33.2,30.5,30.09,WNW,289,4.0,16.0,90,0.00,,,0.01,WUHU216DAVISVP2,2013-04-20 13:26:00,
2013-04-20 09:31:00,33.4,30.5,30.09,West,276,14.0,26.0,89,0.00,,,0.01,WUHU216DAVISVP2,2013-04-20 13:31:00,
2013-04-20 09:36:00,33.7,30.5,30.09,WNW,302,4.0,26.0,88,0.00,,,0.01,WUHU216DAVISVP2,2013-04-20 13:36:00,
2013-04-20 09:41:00,34.0,30.5,30.10,NNW,340,4.0,16.0,87,0.00,,,0.01,WUHU216DAVISVP2,2013-04-20 13:41:00,
2013-04-20 09:46:00,34.3,29.7,30.10,WNW,299,16.0,22.0,83,0.00,,,0.01,WUHU216DAVISVP2,2013-04-20 13:46:00,
2013-04-20 09:51:00,34.5,28.4,30.11,WNW,291,6.0,32.0,78,0.00,,,0.01,WUHU216DAVISVP2,2013-04-20 13:51:00,
2013-04-20 09:56:00,34.6,27.8,30.11,WNW,286,14.0,32.0,76,0.00,,,0.01,WUHU216DAVISVP2,2013-04-20 13:56:00,
2013-04-20 10:01:00,34.6,27.2,30.12,NW,311,10.0,28.0,74,0.00,,,0.01,WUHU216DAVISVP2,2013-04-20 14:01:00,
2013-04-20 10:06:00,34.6,26.9,30.12,WNW,302,14.0,24.0,73,0.00,,,0.01,WUHU216DAVISVP2,2013-04-20 14:06:00,
2013-04-20 10:11:00,34.5,25.4,30.13,NW,325,16.0,36.0,69,0.00,,,0.01,WUHU216DAVISVP2,2013-04-20 14:11:00,
2013-04-20 10:16:00,34.4,25.7,30.13,West,263,12.0,36.0,70,0.00,,,0.01,WUHU216DAVISVP2,2013-04-20 14:16:00,
2013-04-20 10:21:00,34.4,25.7,30.13,NW,323,16.0,28.0,70,0.00,,,0.01,WUHU216DAVISVP2,2013-04-20 14:21:00,
2013-04-20 10:26:00,34.4,25.7,30.13,WNW,284,10.0,28.0,70,0.00,,,0.01,WUHU216DAVISVP2,2013-04-20 14:26:00,
2013-04-20 10:31:00,34.5,26.1,30.14,NNW,333,10.0,22.0,71,0.00,,,0.01,WUHU216DAVISVP2,2013-04-20 14:31:00,
2013-04-20 10:36:00,34.5,26.1,30.15,West,279,14.0,22.0,71,0.00,,,0.01,WUHU216DAVISVP2,2013-04-20 14:36:00,
2013-04-20 10:41:00,34.5,25.1,30.15,WNW,288,18.0,26.0,68,0.00,,,0.01,WUHU216DAVISVP2,2013-04-20 14:41:00,
2013-04-20 10:46:00,34.6,25.9,30.15,NW,316,14.0,26.0,70,0.00,,,0.01,WUHU216DAVISVP2,2013-04-20 14:46:00,
2013-04-20 10:51:00,34.5,26.1,30.16,WSW,250,14.0,28.0,71,0.00,,,0.01,WUHU216DAVISVP2,2013-04-20 14:51:00,
2013-04-20 10:57:00,34.5,26.1,30.16,NNW,338,10.0,28.0,71,0.00,,,0.01,WUHU216DAVISVP2,2013-04-20 14:57:00,
2013-04-20 11:02:00,34.6,26.6,30.17,WNW,302,12.0,26.0,72,0.00,,,0.01,WUHU216DAVISVP2,2013-04-20 15:02:00,
2013-04-20 11:07:00,34.7,26.7,30.17,NW,316,6.0,20.0,72,0.00,,,0.01,WUHU216DAVISVP2,2013-04-20 15:07:00,
2013-04-20 11:12:00,34.9,26.5,30.18,WNW,299,12.0,16.0,71,0.00,,,0.01,WUHU216DAVISVP2,2013-04-20 15:12:00,
2013-04-20 11:17:00,35.0,26.3,30.18,West,264,16.0,18.0,70,0.00,,,0.01,WUHU216DAVISVP2,2013-04-20 15:17:00,
2013-04-20 11:22:00,35.4,25.6,30.18,NNW,347,14.0,24.0,67,0.00,,,0.01,WUHU216DAVISVP2,2013-04-20 15:22:00,
2013-04-20 11:27:00,35.5,25.7,30.19,North,360,8.0,26.0,67,0.00,,,0.01,WUHU216DAVISVP2,2013-04-20 15:27:00,
2013-04-20 11:32:00,35.5,25.3,30.19,WNW,291,14.0,26.0,66,0.00,,,0.01,WUHU216DAVISVP2,2013-04-20 15:32:00,
2013-04-20 11:37:00,35.4,26.0,30.19,NNW,327,8.0,24.0,68,0.00,,,0.01,WUHU216DAVISVP2,2013-04-20 15:37:00,
2013-04-20 11:42:00,35.6,25.8,30.20,WNW,284,6.0,22.0,67,0.01,,,0.02,WUHU216DAVISVP2,2013-04-20 15:42:00,
2013-04-20 11:47:00,35.6,25.8,30.21,WNW,296,8.0,22.0,67,0.01,,,0.02,WUHU216DAVISVP2,2013-04-20 15:47:00,
2013-04-20 11:52:00,35.4,26.3,30.21,NNW,340,6.0,20.0,69,0.02,,,0.03,WUHU216DAVISVP2,2013-04-20 15:52:00,
2013-04-20 11:57:00,35.4,26.0,30.21,WNW,300,12.0,22.0,68,0.02,,,0.03,WUHU216DAVISVP2,2013-04-20 15:57:00,
2013-04-20 12:02:00,35.2,25.8,30.21,WNW,290,20.0,30.0,68,0.02,,,0.03,WUHU216DAVISVP2,2013-04-20 16:02:00,
2013-04-20 12:07:00,35.3,25.9,30.21,North,360,8.0,30.0,68,0.03,,,0.04,WUHU216DAVISVP2,2013-04-20 16:07:00,
2013-04-20 12:12:00,35.5,26.1,30.21,NW,321,10.0,22.0,68,0.03,,,0.04,WUHU216DAVISVP2,2013-04-20 16:12:00,
2013-04-20 12:17:00,35.8,25.6,30.21,WNW,302,16.0,26.0,66,0.03,,,0.04,WUHU216DAVISVP2,2013-04-20 16:17:00,
2013-04-20 12:22:00,35.7,25.9,30.22,NW,310,16.0,26.0,67,0.04,,,0.05,WUHU216DAVISVP2,2013-04-20 16:22:00,
2013-04-20 12:27:00,35.3,25.1,30.22,WNW,300,10.0,24.0,66,0.04,,,0.05,WUHU216DAVISVP2,2013-04-20 16:27:00,
2013-04-20 12:32:00,35.8,26.7,30.22,WNW,296,8.0,24.0,69,0.04,,,0.05,WUHU216DAVISVP2,2013-04-20 16:32:00,
2013-04-20 12:37:00,36.6,27.1,30.22,WNW,288,8.0,16.0,68,0.03,,,0.05,WUHU216DAVISVP2,2013-04-20 16:37:00,
2013-04-20 12:42:00,36.2,25.6,30.23,NW,315,16.0,26.0,65,0.03,,,0.05,WUHU216DAVISVP2,2013-04-20 16:42:00,
2013-04-20 12:47:00,35.9,25.3,30.23,NW,323,10.0,26.0,65,0.03,,,0.05,WUHU216DAVISVP2,2013-04-20 16:47:00,
2013-04-20 12:52:00,35.6,25.8,30.23,WNW,296,12.0,24.0,67,0.02,,,0.05,WUHU216DAVISVP2,2013-04-20 16:52:00,
2013-04-20 12:57:00,35.5,25.3,30.23,West,273,8.0,26.0,66,0.02,,,0.05,WUHU216DAVISVP2,2013-04-20 16:57:00,
2013-04-20 13:02:00,35.8,26.0,30.24,WNW,295,14.0,26.0,67,0.02,,,0.05,WUHU216DAVISVP2,2013-04-20 17:02:00,
2013-04-20 13:07:00,36.0,25.4,30.24,West,265,6.0,18.0,65,0.01,,,0.05,WUHU216DAVISVP2,2013-04-20 17:07:00,
2013-04-20 13:12:00,36.3,25.7,30.24,NW,308,16.0,24.0,65,0.01,,,0.05,WUHU216DAVISVP2,2013-04-20 17:12:00,
2013-04-20 13:18:00,36.1,24.8,30.24,NW,321,8.0,24.0,63,0.01,,,0.05,WUHU216DAVISVP2,2013-04-20 17:18:00,
2013-04-20 13:23:00,35.9,25.3,30.24,WNW,284,10.0,22.0,65,0.00,,,0.05,WUHU216DAVISVP2,2013-04-20 17:23:00,
2013-04-20 13:28:00,36.3,25.0,30.24,SW,234,10.0,32.0,63,0.00,,,0.05,WUHU216DAVISVP2,2013-04-20 17:28:00,
2013-04-20 13:33:00,36.8,26.6,30.24,NNW,331,4.0,32.0,66,0.00,,,0.05,WUHU216DAVISVP2,2013-04-20 17:33:00,
2013-04-20 13:38:00,37.4,26.0,30.25,North,355,10.0,26.0,63,0.00,,,0.05,WUHU216DAVISVP2,2013-04-20 17:38:00,
2013-04-20 13:43:00,37.2,25.4,30.25,NW,311,10.0,26.0,62,0.00,,,0.05,WUHU216DAVISVP2,2013-04-20 17:43:00,
2013-04-20 13:48:00,36.6,24.9,30.25,WNW,294,8.0,22.0,62,0.00,,,0.05,WUHU216DAVISVP2,2013-04-20 17:48:00,
2013-04-20 13:53:00,36.8,26.2,30.25,WSW,248,4.0,20.0,65,0.00,,,0.05,WUHU216DAVISVP2,2013-04-20 17:53:00,
2013-04-20 13:58:00,37.2,26.2,30.25,West,274,0.0,20.0,64,0.00,,,0.05,WUHU216DAVISVP2,2013-04-20 17:58:00,
2013-04-20 14:03:00,37.2,25.4,30.25,North,351,12.0,22.0,62,0.00,,,0.05,WUHU216DAVISVP2,2013-04-20 18:03:00,
2013-04-20 14:08:00,36.9,25.5,30.26,WNW,298,10.0,24.0,63,0.00,,,0.05,WUHU216DAVISVP2,2013-04-20 18:08:00,
2013-04-20 14:13:00,36.8,25.8,30.26,West,271,12.0,24.0,64,0.00,,,0.05,WUHU216DAVISVP2,2013-04-20 18:13:00,
2013-04-20 14:18:00,36.8,25.8,30.26,NW,308,14.0,26.0,64,0.00,,,0.05,WUHU216DAVISVP2,2013-04-20 18:18:00,
2013-04-20 14:23:00,36.6,25.6,30.26,West,268,10.0,26.0,64,0.00,,,0.05,WUHU216DAVISVP2,2013-04-20 18:23:00,
2013-04-20 14:28:00,37.0,25.6,30.27,NW,315,4.0,24.0,63,0.00,,,0.05,WUHU216DAVISVP2,2013-04-20 18:28:00,
2013-04-20 14:33:00,37.5,25.7,30.27,NW,304,8.0,26.0,62,0.00,,,0.05,WUHU216DAVISVP2,2013-04-20 18:33:00,
2013-04-20 14:38:00,37.8,26.8,30.27,NNE,32,2.0,26.0,64,0.00,,,0.05,WUHU216DAVISVP2,2013-04-20 18:38:00,
2013-04-20 14:43:00,38.3,27.3,30.27,WNW,288,12.0,22.0,64,0.00,,,0.05,WUHU216DAVISVP2,2013-04-20 18:43:00,
2013-04-20 14:48:00,38.1,26.3,30.28,WNW,284,8.0,22.0,62,0.00,,,0.05,WUHU216DAVISVP2,2013-04-20 18:48:00,
2013-04-20 14:53:00,37.5,26.1,30.27,WSW,244,10.0,22.0,63,0.00,,,0.05,WUHU216DAVISVP2,2013-04-20 18:53:00,
2013-04-20 14:58:00,38.2,27.2,30.28,West,274,12.0,20.0,64,0.00,,,0.05,WUHU216DAVISVP2,2013-04-20 18:58:00,
2013-04-20 15:03:00,38.6,27.2,30.28,WNW,300,6.0,20.0,63,0.00,,,0.05,WUHU216DAVISVP2,2013-04-20 19:03:00,
2013-04-20 15:08:00,38.9,26.7,30.28,West,264,14.0,20.0,61,0.00,,,0.05,WUHU216DAVISVP2,2013-04-20 19:08:00,
2013-04-20 15:14:00,39.0,26.8,30.28,NNW,336,12.0,20.0,61,0.00,,,0.05,WUHU216DAVISVP2,2013-04-20 19:14:00,
2013-04-20 15:19:00,38.2,26.0,30.29,NNW,327,8.0,22.0,61,0.00,,,0.05,WUHU216DAVISVP2,2013-04-20 19:19:00,
2013-04-20 15:24:00,38.6,27.2,30.29,WNW,295,10.0,22.0,63,0.00,,,0.05,WUHU216DAVISVP2,2013-04-20 19:24:00,
2013-04-20 15:29:00,39.5,26.8,30.29,WNW,296,8.0,22.0,60,0.00,,,0.05,WUHU216DAVISVP2,2013-04-20 19:29:00,
2013-04-20 15:34:00,39.3,26.6,30.29,WNW,288,14.0,22.0,60,0.00,,,0.05,WUHU216DAVISVP2,2013-04-20 19:34:00,
2013-04-20 15:39:00,39.3,25.8,30.29,West,279,8.0,24.0,58,0.00,,,0.05,WUHU216DAVISVP2,2013-04-20 19:39:00,
2013-04-20 15:44:00,39.1,26.8,30.29,NW,321,12.0,24.0,61,0.00,,,0.05,WUHU216DAVISVP2,2013-04-20 19:44:00,
2013-04-20 15:49:00,39.1,25.2,30.30,NNW,343,10.0,26.0,57,0.00,,,0.05,WUHU216DAVISVP2,2013-04-20 19:49:00,
2013-04-20 15:54:00,39.1,25.6,30.30,WNW,296,6.0,26.0,58,0.00,,,0.05,WUHU216DAVISVP2,2013-04-20 19:54:00,
2013-04-20 15:59:00,40.0,26.0,30.30,WNW,284,10.0,20.0,57,0.00,,,0.05,WUHU216DAVISVP2,2013-04-20 19:59:00,
2013-04-20 16:04:00,39.6,25.6,30.31,North,360,6.0,20.0,57,0.00,,,0.05,WUHU216DAVISVP2,2013-04-20 20:04:00,
2013-04-20 16:09:00,39.3,25.8,30.30,NNW,331,14.0,22.0,58,0.00,,,0.05,WUHU216DAVISVP2,2013-04-20 20:09:00,
2013-04-20 16:14:00,38.5,25.0,30.31,NW,321,8.0,24.0,58,0.00,,,0.05,WUHU216DAVISVP2,2013-04-20 20:14:00,
2013-04-20 16:19:00,38.9,27.1,30.31,NW,315,4.0,24.0,62,0.00,,,0.05,WUHU216DAVISVP2,2013-04-20 20:19:00,
2013-04-20 16:24:00,39.7,26.6,30.31,NW,315,18.0,18.0,59,0.00,,,0.05,WUHU216DAVISVP2,2013-04-20 20:24:00,
2013-04-20 16:29:00,39.2,25.7,30.31,NW,317,6.0,20.0,58,0.00,,,0.05,WUHU216DAVISVP2,2013-04-20 20:29:00,
2013-04-20 16:34:00,38.9,24.6,30.32,NW,313,6.0,26.0,56,0.00,,,0.05,WUHU216DAVISVP2,2013-04-20 20:34:00,
2013-04-20 16:39:00,38.8,25.3,30.32,WNW,291,8.0,26.0,58,0.00,,,0.05,WUHU216DAVISVP2,2013-04-20 20:39:00,
2013-04-20 16:44:00,39.2,25.3,30.32,WNW,297,10.0,22.0,57,0.00,,,0.05,WUHU216DAVISVP2,2013-04-20 20:44:00,
2013-04-20 16:49:00,38.4,25.8,30.32,NNW,329,4.0,22.0,60,0.00,,,0.05,WUHU216DAVISVP2,2013-04-20 20:49:00,
2013-04-20 16:54:00,38.8,25.7,30.33,WNW,303,10.0,22.0,59,0.00,,,0.05,WUHU216DAVISVP2,2013-04-20 20:54:00,
2013-04-20 16:59:00,38.8,25.7,30.33,WNW,286,8.0,22.0,59,0.00,,,0.05,WUHU216DAVISVP2,2013-04-20 20:59:00,
2013-04-20 17:05:00,39.1,25.6,30.33,NW,311,16.0,22.0,58,0.00,,,0.05,WUHU216DAVISVP2,2013-04-20 21:05:00,
2013-04-20 17:10:00,39.6,26.5,30.33,WSW,256,6.0,20.0,59,0.00,,,0.05,WUHU216DAVISVP2,2013-04-20 21:10:00,
2013-04-20 17:15:00,40.8,27.2,30.33,NW,316,12.0,14.0,58,0.00,,,0.05,WUHU216DAVISVP2,2013-04-20 21:15:00,
2013-04-20 17:20:00,40.3,27.2,30.34,WNW,300,8.0,20.0,59,0.00,,,0.05,WUHU216DAVISVP2,2013-04-20 21:20:00,
2013-04-20 17:25:00,39.5,26.0,30.34,WNW,282,8.0,20.0,58,0.00,,,0.05,WUHU216DAVISVP2,2013-04-20 21:25:00,
2013-04-20 17:30:00,39.5,25.6,30.34,NW,326,8.0,18.0,57,0.00,,,0.05,WUHU216DAVISVP2,2013-04-20 21:30:00,
2013-04-20 17:35:00,39.6,25.6,30.34,NW,324,12.0,18.0,57,0.00,,,0.05,WUHU216DAVISVP2,2013-04-20 21:35:00,
2013-04-20 17:40:00,39.3,25.8,30.34,WNW,302,8.0,26.0,58,0.00,,,0.05,WUHU216DAVISVP2,2013-04-20 21:40:00,
2013-04-20 17:45:00,39.8,26.7,30.35,NNW,329,12.0,26.0,59,0.00,,,0.05,WUHU216DAVISVP2,2013-04-20 21:45:00,
2013-04-20 17:50:00,39.3,24.5,30.35,NW,320,10.0,20.0,55,0.00,,,0.05,WUHU216DAVISVP2,2013-04-20 21:50:00,
2013-04-20 17:55:00,39.5,26.0,30.35,WSW,250,8.0,20.0,58,0.00,,,0.05,WUHU216DAVISVP2,2013-04-20 21:55:00,
2013-04-20 18:00:00,39.8,25.0,30.35,WNW,299,8.0,20.0,55,0.00,,,0.05,WUHU216DAVISVP2,2013-04-20 22:00:00,
2013-04-20 18:05:00,40.0,25.6,30.35,NW,317,6.0,18.0,56,0.00,,,0.05,WUHU216DAVISVP2,2013-04-20 22:05:00,
2013-04-20 18:10:00,39.8,24.5,30.36,WNW,292,10.0,22.0,54,0.00,,,0.05,WUHU216DAVISVP2,2013-04-20 22:10:00,
2013-04-20 18:15:00,39.1,23.9,30.36,NW,307,10.0,22.0,54,0.00,,,0.05,WUHU216DAVISVP2,2013-04-20 22:15:00,
2013-04-20 18:20:00,38.9,23.7,30.36,NE,41,6.0,20.0,54,0.00,,,0.05,WUHU216DAVISVP2,2013-04-20 22:20:00,
2013-04-20 18:25:00,38.8,24.0,30.36,NW,323,12.0,24.0,55,0.00,,,0.05,WUHU216DAVISVP2,2013-04-20 22:25:00,
2013-04-20 18:30:00,38.8,24.9,30.36,WNW,282,6.0,24.0,57,0.00,,,0.05,WUHU216DAVISVP2,2013-04-20 22:30:00,
2013-04-20 18:35:00,38.9,24.1,30.36,NW,309,10.0,16.0,55,0.00,,,0.05,WUHU216DAVISVP2,2013-04-20 22:35:00,
2013-04-20 18:40:00,38.9,23.7,30.36,NNW,333,10.0,22.0,54,0.00,,,0.05,WUHU216DAVISVP2,2013-04-20 22:40:00,
2013-04-20 18:45:00,38.7,24.4,30.36,WNW,297,4.0,22.0,56,0.00,,,0.05,WUHU216DAVISVP2,2013-04-20 22:45:00,
2013-04-20 18:50:00,39.0,24.7,30.36,WNW,293,4.0,16.0,56,0.00,,,0.05,WUHU216DAVISVP2,2013-04-20 22:50:00,
2013-04-20 18:55:00,39.1,24.7,30.36,WNW,283,6.0,12.0,56,0.00,,,0.05,WUHU216DAVISVP2,2013-04-20 22:55:00,
2013-04-20 19:00:00,38.8,24.5,30.37,WNW,292,4.0,16.0,56,0.00,,,0.05,WUHU216DAVISVP2,2013-04-20 23:00:00,
2013-04-20 19:05:00,38.6,25.1,30.37,NW,311,8.0,16.0,58,0.00,,,0.05,WUHU216DAVISVP2,2013-04-20 23:05:00,
2013-04-20 19:10:00,38.3,24.4,30.37,SW,218,10.0,14.0,57,0.00,,,0.05,WUHU216DAVISVP2,2013-04-20 23:10:00,
2013-04-20 19:15:00,38.1,24.7,30.37,NNE,19,8.0,18.0,58,0.00,,,0.05,WUHU216DAVISVP2,2013-04-20 23:15:00,
2013-04-20 19:21:00,37.9,24.9,30.37,NNW,331,10.0,18.0,59,0.00,,,0.05,WUHU216DAVISVP2,2013-04-20 23:21:00,
2013-04-20 19:26:00,37.8,25.2,30.37,WNW,286,8.0,16.0,60,0.00,,,0.05,WUHU216DAVISVP2,2013-04-20 23:26:00,
2013-04-20 19:31:00,37.7,25.1,30.38,NE,36,6.0,16.0,60,0.00,,,0.05,WUHU216DAVISVP2,2013-04-20 23:31:00,
2013-04-20 19:36:00,37.7,25.1,30.38,WNW,294,8.0,12.0,60,0.00,,,0.05,WUHU216DAVISVP2,2013-04-20 23:36:00,
2013-04-20 19:41:00,37.5,24.9,30.38,WSW,251,12.0,14.0,60,0.00,,,0.05,WUHU216DAVISVP2,2013-04-20 23:41:00,
2013-04-20 19:46:00,37.4,24.8,30.38,West,279,6.0,16.0,60,0.00,,,0.05,WUHU216DAVISVP2,2013-04-20 23:46:00,
2013-04-20 19:51:00,37.3,25.1,30.38,NW,311,4.0,16.0,61,0.00,,,0.05,WUHU216DAVISVP2,2013-04-20 23:51:00,
2013-04-20 19:56:00,37.1,25.0,30.39,NW,309,4.0,12.0,61,0.00,,,0.05,WUHU216DAVISVP2,2013-04-20 23:56:00,
2013-04-20 20:01:00,37.0,25.3,30.39,North,355,2.0,12.0,62,0.00,,,0.05,WUHU216DAVISVP2,2013-04-21 00:01:00,
2013-04-20 20:06:00,36.9,24.8,30.39,NNW,340,4.0,12.0,61,0.00,,,0.05,WUHU216DAVISVP2,2013-04-21 00:06:00,
2013-04-20 20:11:00,36.8,25.1,30.39,NW,308,6.0,12.0,62,0.00,,,0.05,WUHU216DAVISVP2,2013-04-21 00:11:00,
2013-04-20 20:16:00,36.7,25.4,30.39,WNW,293,4.0,10.0,63,0.00,,,0.05,WUHU216DAVISVP2,2013-04-21 00:16:00,
2013-04-20 20:21:00,36.6,25.3,30.40,WNW,298,8.0,12.0,63,0.00,,,0.05,WUHU216DAVISVP2,2013-04-21 00:21:00,
2013-04-20 20:26:00,36.5,25.2,30.40,WNW,302,0.0,12.0,63,0.00,,,0.05,WUHU216DAVISVP2,2013-04-21 00:26:00,
2013-04-20 20:31:00,36.5,25.5,30.40,WSW,257,0.0,8.0,64,0.00,,,0.05,WUHU216DAVISVP2,2013-04-21 00:31:00,
2013-04-20 20:36:00,36.3,25.4,30.41,WSW,257,0.0,6.0,64,0.00,,,0.05,WUHU216DAVISVP2,2013-04-21 00:36:00,
2013-04-20 20:41:00,36.2,25.6,30.41,WSW,257,0.0,2.0,65,0.00,,,0.05,WUHU216DAVISVP2,2013-04-21 00:41:00,
2013-04-20 20:46:00,36.0,25.8,30.41,WSW,257,0.0,0.0,66,0.00,,,0.05,WUHU216DAVISVP2,2013-04-21 00:46:00,
2013-04-20 20:51:00,35.8,25.6,30.41,WSW,257,0.0,0.0,66,0.00,,,0.05,WUHU216DAVISVP2,2013-04-21 00:51:00,
2013-04-20 20:56:00,35.5,25.3,30.41,WSW,257,0.0,0.0,66,0.00,,,0.05,WUHU216DAVISVP2,2013-04-21 00:56:00,
2013-04-20 21:01:00,35.4,25.6,30.42,WSW,257,0.0,0.0,67,0.00,,,0.05,WUHU216DAVISVP2,2013-04-21 01:01:00,
2013-04-20 21:06:00,35.2,26.1,30.42,WSW,257,0.0,0.0,69,0.00,,,0.05,WUHU216DAVISVP2,2013-04-21 01:06:00,
2013-04-20 21:11:00,35.0,26.3,30.42,WSW,257,0.0,0.0,70,0.00,,,0.05,WUHU216DAVISVP2,2013-04-21 01:11:00,
2013-04-20 21:16:00,34.9,26.2,30.43,WSW,257,0.0,0.0,70,0.00,,,0.05,WUHU216DAVISVP2,2013-04-21 01:16:00,
2013-04-20 21:21:00,34.8,26.1,30.43,NW,322,0.0,4.0,70,0.00,,,0.05,WUHU216DAVISVP2,2013-04-21 01:21:00,
2013-04-20 21:27:00,34.9,26.8,30.43,NW,322,0.0,4.0,72,0.00,,,0.05,WUHU216DAVISVP2,2013-04-21 01:27:00,
2013-04-20 21:32:00,34.9,26.8,30.44,ENE,60,0.0,4.0,72,0.00,,,0.05,WUHU216DAVISVP2,2013-04-21 01:32:00,
2013-04-20 21:37:00,34.8,26.4,30.44,ENE,60,0.0,4.0,71,0.00,,,0.05,WUHU216DAVISVP2,2013-04-21 01:37:00,
2013-04-20 21:42:00,34.8,27.1,30.44,ENE,60,0.0,0.0,73,0.00,,,0.05,WUHU216DAVISVP2,2013-04-21 01:42:00,
2013-04-20 21:47:00,34.7,27.0,30.44,ENE,60,0.0,0.0,73,0.00,,,0.05,WUHU216DAVISVP2,2013-04-21 01:47:00,
2013-04-20 21:52:00,34.7,27.0,30.45,ENE,60,0.0,0.0,73,0.00,,,0.05,WUHU216DAVISVP2,2013-04-21 01:52:00,
2013-04-20 21:57:00,34.7,27.0,30.45,ENE,60,0.0,0.0,73,0.00,,,0.05,WUHU216DAVISVP2,2013-04-21 01:57:00,
2013-04-20 22:02:00,34.7,27.0,30.45,ENE,60,0.0,0.0,73,0.00,,,0.05,WUHU216DAVISVP2,2013-04-21 02:02:00,
2013-04-20 22:07:00,34.7,27.0,30.45,ENE,60,0.0,0.0,73,0.00,,,0.05,WUHU216DAVISVP2,2013-04-21 02:07:00,
2013-04-20 22:12:00,34.7,27.3,30.45,ENE,60,0.0,0.0,74,0.00,,,0.05,WUHU216DAVISVP2,2013-04-21 02:12:00,
2013-04-20 22:17:00,34.6,27.5,30.46,ENE,60,0.0,0.0,75,0.00,,,0.05,WUHU216DAVISVP2,2013-04-21 02:17:00,
2013-04-20 22:22:00,34.5,27.4,30.46,ENE,60,0.0,0.0,75,0.00,,,0.05,WUHU216DAVISVP2,2013-04-21 02:22:00,
2013-04-20 22:27:00,34.3,27.2,30.46,ENE,60,0.0,0.0,75,0.00,,,0.05,WUHU216DAVISVP2,2013-04-21 02:27:00,
2013-04-20 22:32:00,34.3,27.6,30.46,ENE,60,0.0,0.0,76,0.00,,,0.05,WUHU216DAVISVP2,2013-04-21 02:32:00,
2013-04-20 22:37:00,34.1,27.4,30.46,ENE,60,0.0,0.0,76,0.00,,,0.05,WUHU216DAVISVP2,2013-04-21 02:37:00,
2013-04-20 22:42:00,34.1,27.7,30.46,ENE,60,0.0,0.0,77,0.00,,,0.05,WUHU216DAVISVP2,2013-04-21 02:42:00,
2013-04-20 22:47:00,34.0,27.6,30.46,ENE,60,0.0,0.0,77,0.00,,,0.05,WUHU216DAVISVP2,2013-04-21 02:47:00,
2013-04-20 22:52:00,33.9,27.2,30.47,ENE,60,0.0,0.0,76,0.00,,,0.05,WUHU216DAVISVP2,2013-04-21 02:52:00,
2013-04-20 22:57:00,33.8,27.4,30.47,ENE,60,0.0,0.0,77,0.00,,,0.05,WUHU216DAVISVP2,2013-04-21 02:57:00,
2013-04-20 23:02:00,33.7,27.0,30.47,ENE,60,0.0,2.0,76,0.00,,,0.05,WUHU216DAVISVP2,2013-04-21 03:02:00,
2013-04-20 23:07:00,33.5,27.1,30.47,ENE,60,0.0,2.0,77,0.00,,,0.05,WUHU216DAVISVP2,2013-04-21 03:07:00,
2013-04-20 23:12:00,33.4,27.3,30.47,ENE,60,0.0,0.0,78,0.00,,,0.05,WUHU216DAVISVP2,2013-04-21 03:12:00,
2013-04-20 23:18:00,33.3,26.6,30.47,ENE,60,0.0,0.0,76,0.00,,,0.05,WUHU216DAVISVP2,2013-04-21 03:18:00,
2013-04-20 23:23:00,33.3,26.9,30.47,ENE,60,0.0,0.0,77,0.00,,,0.05,WUHU216DAVISVP2,2013-04-21 03:23:00,
2013-04-20 23:28:00,33.3,26.6,30.48,ENE,60,0.0,0.0,76,0.00,,,0.05,WUHU216DAVISVP2,2013-04-21 03:28:00,
2013-04-20 23:33:00,33.3,26.9,30.48,ENE,60,0.0,0.0,77,0.00,,,0.05,WUHU216DAVISVP2,2013-04-21 03:33:00,
2013-04-20 23:38:00,33.3,27.2,30.48,ENE,60,0.0,0.0,78,0.00,,,0.05,WUHU216DAVISVP2,2013-04-21 03:38:00,
2013-04-20 23:43:00,33.4,27.0,30.48,ENE,60,0.0,0.0,77,0.00,,,0.05,WUHU216DAVISVP2,2013-04-21 03:43:00,
2013-04-20 23:48:00,33.4,27.3,30.48,ENE,60,0.0,0.0,78,0.00,,,0.05,WUHU216DAVISVP2,2013-04-21 03:48:00,
2013-04-20 23:53:00,33.5,27.7,30.48,ENE,60,0.0,0.0,79,0.00,,,0.05,WUHU216DAVISVP2,2013-04-21 03:53:00,
2013-04-20 23:58:00,33.5,28.0,30.48,ENE,60,0.0,0.0,80,0.00,,,0.05,WUHU216DAVISVP2,2013-04-21 03:58:00,